Weather History for Grand Prairie, TX

Change the Weather History Date:

Saturday, April 12, 2014

  Actual Average (KDFW) Record (KDFW)
Temperature  
Mean Temperature 73 °F 65 °F  
Max Temperature 82 °F 76 °F 95 °F (1972)
Min Temperature 64 °F 54 °F 31 °F (1957)
Degree Days  
Heating Degree Days 0 3  
Month to date heating degree days 50  
Since 1 July heating degree days 2243  
Cooling Degree Days 8 3  
Month to date cooling degree days 28  
Year to date cooling degree days 67  
Growing Degree Days 23 (Base 50)    
Moisture  
Dew Point 58 °F    
Average Humidity 65    
Maximum Humidity 83    
Minimum Humidity 42    
Precipitation  
Precipitation 0.00 in 0.08 in 1.03 in (1969)
Month to date precipitation 1.06  
Year to date precipitation 9.34  
Snow  
Snow 0.00 in 0.00 in 0.00 in ()
Month to date snowfall 0.0  
Since 1 July snowfall 1.2  
Snow Depth -    
Sea Level Pressure  
Sea Level Pressure 29.89 in    
Wind  
Wind Speed 14 mph (SSE)    
Max Wind Speed 22 mph    
Max Gust Speed 32 mph    
Visibility 10 miles    
Events      
T = Trace of Precipitation, MM = Missing Value Source: NWS Daily Summary

Daily Weather History Graph

Daily Weather History Graph

Search for Another Location

Airport:

Trip Planner

Search our weather history database for the weather conditions in past years. The results will help you decide how hot, cold, wet, or windy it might be!

Date:

Astronomy

Apr. 12, 2014 Rise Set
Actual Time 7:02 AM CDT 7:56 PM CDT
Civil Twilight 6:37 AM CDT 8:21 PM CDT
Nautical Twilight 6:07 AM CDT 8:51 PM CDT
Astronomical Twilight 5:36 AM CDT 9:21 PM CDT
Moon 5:42 PM CDT (4/12) 5:21 AM CDT (4/12)
Length of Visible Light 13h 44m
Length of Day
12h 53m
Waxing Gibbous, 93% of the Moon is Illuminated
Apr 12
Waxing Gibbous
Apr 15
Full
Apr 22
Last Quarter
Apr 29
New
May 6
First Quarter

Hourly Weather History & Observations

Time (CDT) Temp. Heat Index Dew Point Humidity Pressure Visibility Wind Dir Wind Speed Gust Speed Precip Events Conditions
12:15 AM 69.8 °F - 59.0 °F 68% 29.94 in 10.0 mi SSE 11.5 mph 17.3 mph N/A   Clear
12:35 AM 69.8 °F - 59.0 °F 68% 29.95 in 10.0 mi SSE 13.8 mph 21.9 mph N/A   Clear
12:55 AM 69.8 °F - 57.2 °F 64% 29.95 in 10.0 mi South 15.0 mph 23.0 mph N/A   Clear
1:15 AM 69.8 °F - 57.2 °F 64% 29.94 in 10.0 mi South 13.8 mph 23.0 mph N/A   Clear
1:35 AM 68.0 °F - 57.2 °F 68% 29.94 in 10.0 mi South 15.0 mph 20.7 mph N/A   Clear
1:55 AM 68.0 °F - 57.2 °F 68% 29.94 in 10.0 mi South 13.8 mph 21.9 mph N/A   Clear
2:15 AM 68.0 °F - 57.2 °F 68% 29.94 in 10.0 mi South 12.7 mph 20.7 mph N/A   Clear
2:35 AM 66.2 °F - 57.2 °F 73% 29.94 in 10.0 mi South 12.7 mph 23.0 mph N/A   Clear
2:55 AM 64.4 °F - 57.2 °F 77% 29.94 in 10.0 mi South 9.2 mph 23.0 mph N/A   Clear
3:15 AM 64.4 °F - 57.2 °F 77% 29.94 in 10.0 mi South 10.4 mph 20.7 mph N/A   Scattered Clouds
3:35 AM 64.4 °F - 57.2 °F 77% 29.94 in 10.0 mi South 12.7 mph 18.4 mph N/A   Mostly Cloudy
3:55 AM 64.4 °F - 57.2 °F 77% 29.94 in 10.0 mi South 16.1 mph 24.2 mph N/A   Overcast
4:15 AM 64.4 °F - 57.2 °F 77% 29.94 in 10.0 mi South 13.8 mph 21.9 mph N/A   Overcast
4:35 AM 64.4 °F - 57.2 °F 77% 29.94 in 10.0 mi South 11.5 mph 18.4 mph N/A   Overcast
4:55 AM 64.4 °F - 57.2 °F 77% 29.94 in 10.0 mi South 12.7 mph 20.7 mph N/A   Overcast
5:15 AM 64.4 °F - 59.0 °F 83% 29.93 in 10.0 mi South 12.7 mph 19.6 mph N/A   Overcast
5:35 AM 66.2 °F - 59.0 °F 78% 29.93 in 10.0 mi South 12.7 mph 20.7 mph N/A   Overcast
5:55 AM 66.2 °F - 59.0 °F 78% 29.93 in 10.0 mi South 13.8 mph 20.7 mph N/A   Overcast
6:15 AM 66.2 °F - 59.0 °F 78% 29.93 in 10.0 mi South 16.1 mph - N/A   Overcast
6:35 AM 66.2 °F - 59.0 °F 78% 29.93 in 10.0 mi South 11.5 mph - N/A   Overcast
6:50 AM 66.2 °F - 59.0 °F 78% 29.93 in 10.0 mi SSE 11.5 mph 17.3 mph N/A   Overcast
7:50 AM 66.2 °F - 59.0 °F 78% 29.95 in 10.0 mi South 12.7 mph 23.0 mph N/A   Overcast
8:50 AM 68.0 °F - 59.0 °F 73% 29.95 in 10.0 mi SSE 16.1 mph 23.0 mph N/A   Overcast
9:50 AM 69.8 °F - 57.2 °F 64% 29.95 in 10.0 mi South 17.3 mph 25.3 mph N/A   Scattered Clouds
10:50 AM 71.6 °F - 57.2 °F 60% 29.95 in 10.0 mi South 16.1 mph 26.5 mph N/A   Scattered Clouds
11:50 AM 73.4 °F - 57.2 °F 57% 29.94 in 10.0 mi SSE 21.9 mph 26.5 mph N/A   Scattered Clouds
12:50 PM 75.2 °F - 59.0 °F 57% 29.92 in 10.0 mi SSE 20.7 mph 31.1 mph N/A   Scattered Clouds
1:50 PM 78.8 °F - 57.2 °F 47% 29.88 in 10.0 mi SSE 19.6 mph 32.2 mph N/A   Clear
2:50 PM 80.6 °F 80.8 °F 57.2 °F 45% 29.85 in 10.0 mi ESE 19.6 mph 29.9 mph N/A   Clear
3:50 PM 82.4 °F 82.0 °F 57.2 °F 42% 29.82 in 10.0 mi South 16.1 mph 28.8 mph N/A   Clear
4:50 PM 82.4 °F 82.0 °F 57.2 °F 42% 29.80 in 10.0 mi SSE 19.6 mph 31.1 mph N/A   Clear
5:50 PM 80.6 °F 80.8 °F 57.2 °F 45% 29.79 in 10.0 mi SSE 17.3 mph 21.9 mph N/A   Clear
7:56 PM 78.8 °F - 60.8 °F 54% 29.77 in 10.0 mi SSE 12.7 mph 17.3 mph N/A   Overcast
8:15 PM 77.0 °F - 59.0 °F 54% 29.78 in 10.0 mi SSE 13.8 mph 18.4 mph N/A   Clear
8:35 PM 77.0 °F - 59.0 °F 54% 29.79 in 10.0 mi SSE 11.5 mph 23.0 mph N/A   Clear
8:55 PM 77.0 °F - 59.0 °F 54% 29.79 in 10.0 mi SSE 13.8 mph 24.2 mph N/A   Clear
9:15 PM 75.2 °F - 59.0 °F 57% 29.80 in 10.0 mi SSE 15.0 mph 19.6 mph N/A   Clear
9:35 PM 75.2 °F - 59.0 °F 57% 29.80 in 10.0 mi SSE 10.4 mph 20.7 mph N/A   Clear
10:15 PM 73.4 °F - 59.0 °F 61% 29.81 in 10.0 mi South 12.7 mph 26.5 mph N/A   Clear
10:35 PM 73.4 °F - 59.0 °F 61% 29.81 in 10.0 mi South 16.1 mph 24.2 mph N/A   Clear
10:55 PM 73.4 °F - 59.0 °F 61% 29.80 in 10.0 mi South 11.5 mph 26.5 mph N/A   Clear
11:15 PM 71.6 °F - 59.0 °F 64% 29.80 in 10.0 mi SSE 18.4 mph 27.6 mph N/A   Clear
11:35 PM 71.6 °F - 59.0 °F 64% 29.80 in 10.0 mi South 19.6 mph 31.1 mph N/A   Clear
11:55 PM 71.6 °F - 59.0 °F 64% 29.80 in 10.0 mi South 17.3 mph 27.6 mph N/A   Clear